Wind_Speed
9 11 7 6 5 4 7 10 10 9 8 8 8 5 5 10 10 5 3 4 8 4 2 3 6 1 3 0 1 1 2 3 3 3 4 4 5 4 4 5 5 6 10 10 12 15 16 17 17 18 17 18 18 17 17 17 18 18 18 19 19 19 18 18 17 16 16 15 14 13 12 11 10 11 11 12 11 11 11 12 12 13 13 14 13 13 13
9 11 8 6 6 5 5 9 11 11 10 10 10 8 8 10 9 8 5 4 8 7 3 6 4 4 4 3 2 2 2 2 3 3 3 2 2 3 3 6 6 7 8 8 10 15 16 16 16 16 15 16 16 16 16 16 17 17 17 17 17 18 18 18 16 15 15 15 13 11 10 10 11 11 11 11 11 11 11 12 12 11 12 13 13 13 13
9 11 9 7 8 7 7 10 12 12 12 12 12 11 11 9 7 8 8 7 7 6 3 4 4 5 3 4 2 3 2 3 3 3 4 3 1 3 5 7 8 5 5 8 10 14 16 16 16 15 14 15 15 15 15 15 16 16 17 16 16 16 16 16 17 15 14 14 12 12 15 16 16 16 15 13 12 11 11 11 11 11 11 11 12 12 9
8 10 10 7 7 9 10 12 12 12 12 11 10 10 6 4 6 8 9 8 5 2 5 6 3 4 3 4 3 2 2 3 3 3 5 5 3 2 3 7 8 6 6 11 13 12 14 14 15 15 14 14 15 14 14 15 15 15 15 15 16 15 13 14 16 15 14 13 13 14 17 18 18 18 17 16 14 12 12 12 12 11 11 11 11 9 5
7 9 6 4 6 9 9 7 4 6 10 9 10 9 4 6 7 7 6 6 5 3 4 7 3 3 2 2 4 3 2 3 4 4 5 7 8 7 4 2 1 1 1 5 5 4 7 9 10 11 11 11 11 12 12 12 13 14 15 15 15 15 14 13 14 15 15 15 15 15 17 17 18 19 18 17 16 14 13 13 12 12 11 11 11 7 2
8 8 2 3 7 8 4 1 3 4 7 6 9 10 6 6 6 2 1 5 6 4 5 5 1 2 3 4 4 3 2 2 3 3 3 6 10 11 8 6 5 5 7 8 8 7 4 4 6 5 6 7 7 8 10 11 12 13 14 14 14 15 16 16 15 14 15 16 15 15 17 17 17 18 17 17 16 14 13 13 12 11 11 10 10 7 4
8 7 2 4 8 3 2 2 1 2 5 7 9 10 11 11 8 6 7 6 4 6 6 2 1 2 3 4 3 3 3 2 1 1 1 1 6 10 10 8 8 7 6 5 7 10 9 7 6 6 4 4 4 5 7 9 10 11 12 13 14 14 15 17 17 14 15 17 17 17 16 15 16 18 17 16 15 15 14 13 11 10 10 8 6 6 6
6 6 6 7 4 2 2 5 3 3 5 7 9 10 9 8 5 6 6 3 3 8 7 1 2 3 4 4 4 4 5 4 2 1 0 1 3 7 10 8 9 11 8 4 5 7 8 7 7 7 7 6 4 4 4 4 5 7 8 9 11 12 12 13 14 14 15 16 16 15 13 13 14 16 17 16 15 14 13 11 9 8 8 7 6 4 2
6 7 7 6 6 6 7 6 3 2 5 4 5 7 7 4 2 3 4 3 7 10 5 3 3 4 4 2 3 6 6 6 5 4 3 3 4 7 10 9 11 14 12 7 8 11 11 10 8 8 10 10 9 8 7 6 5 3 2 1 3 6 8 10 11 12 13 14 13 13 12 11 11 12 13 14 14 12 11 8 6 6 5 4 5 2 4
5 5 6 7 8 6 2 1 1 0 3 5 6 6 6 4 2 2 5 6 9 10 4 3 3 3 2 1 2 6 7 6 6 6 5 4 5 7 10 9 11 16 15 12 14 15 14 12 11 10 11 12 12 11 10 9 8 8 7 5 4 2 2 6 9 9 10 10 10 10 10 10 12 11 10 12 13 11 11 9 7 7 6 4 5 8 10
5 6 6 6 7 4 2 3 2 1 2 5 6 6 4 5 9 6 3 4 5 5 3 2 1 2 2 1 2 5 6 5 6 6 5 5 5 7 10 10 12 16 18 17 17 16 14 13 12 12 13 13 13 13 11 10 10 9 8 6 4 3 1 2 7 10 9 7 9 11 11 11 12 11 9 10 10 8 8 8 6 7 8 8 8 10 10
7 8 7 6 6 3 3 3 3 3 3 3 7 6 3 3 7 6 3 2 3 6 4 3 2 2 1 2 3 2 2 4 6 6 6 6 5 7 11 11 12 17 20 19 18 16 14 12 12 14 16 17 16 15 13 13 13 12 10 8 5 1 1 2 6 8 7 6 9 11 11 10 11 11 11 10 9 7 7 8 9 9 9 9 10 10 9
9 9 8 7 4 2 3 0 2 2 3 4 6 4 1 3 4 5 4 4 7 6 3 2 2 0 1 5 8 8 5 6 7 7 8 8 7 8 12 13 15 19 22 20 18 16 15 14 15 19 21 21 20 19 18 18 17 14 11 11 12 9 8 9 10 9 7 7 7 8 9 10 11 11 12 12 11 11 12 13 14 14 13 13 12 11 10
8 7 8 7 4 1 2 2 1 1 3 5 3 1 1 1 2 4 5 4 4 4 3 1 1 4 5 6 9 10 8 8 9 8 9 10 9 11 13 16 19 21 22 20 19 19 18 18 20 23 26 26 23 21 21 21 18 16 16 16 18 19 19 18 18 16 15 14 14 14 14 15 16 16 16 16 15 14 15 17 17 16 15 13 12 11 11
6 7 7 7 3 0 0 1 1 1 3 3 1 1 1 1 3 4 3 2 2 2 6 4 1 3 7 6 7 10 9 10 11 11 12 12 12 13 14 15 19 21 21 22 21 19 19 20 20 23 25 24 21 20 20 19 19 21 22 21 21 22 23 25 25 23 22 21 20 19 18 19 21 21 19 18 18 17 17 19 19 18 16 15 14 14 14
5 6 4 2 1 1 1 2 2 1 2 1 3 2 2 3 3 3 1 1 2 1 6 8 6 5 7 6 6 8 9 10 11 12 14 15 15 15 15 17 20 22 22 23 22 20 20 21 21 21 22 21 19 19 18 16 17 21 23 23 24 23 23 25 26 26 25 24 23 21 19 19 21 21 21 21 21 21 21 21 20 19 18 16 14 13 11
5 6 2 2 1 2 1 3 3 2 1 1 3 5 6 4 2 2 3 0 2 1 2 6 8 7 8 7 5 3 3 8 12 13 14 16 17 17 18 19 19 20 22 24 24 23 22 22 21 19 19 20 19 18 17 16 17 18 19 22 23 22 21 22 22 23 24 22 21 19 18 19 20 20 20 20 19 18 18 17 17 18 17 14 11 10 8
4 5 3 2 2 2 2 3 1 1 4 4 3 4 5 4 2 2 3 3 4 2 1 3 7 9 10 9 7 7 6 3 8 12 14 16 17 18 19 20 19 20 22 23 24 24 23 21 20 18 17 18 19 18 17 17 17 18 18 20 20 19 19 18 18 18 19 18 17 17 16 17 18 18 17 17 15 14 14 13 13 15 15 11 9 8 7
3 2 2 2 2 2 3 3 2 2 4 4 4 4 4 3 3 2 3 3 3 4 5 8 11 11 10 9 7 7 6 5 6 11 14 15 16 18 19 20 20 21 22 23 23 24 23 22 20 19 18 18 19 19 19 18 18 18 19 19 19 17 17 16 16 15 15 14 14 13 12 11 11 12 11 10 9 9 9 8 8 9 9 8 6 6 6
6 4 2 1 2 2 3 4 4 3 2 1 2 4 3 2 2 1 4 3 3 4 8 11 13 13 12 10 9 8 7 5 6 10 13 13 14 17 18 19 19 19 20 22 22 22 21 20 19 18 19 18 18 18 17 17 17 18 18 17 17 16 15 15 14 14 13 13 12 11 11 11 11 10 9 8 9 9 9 9 8 8 7 6 5 5 5
7 6 4 4 4 4 4 3 2 2 2 1 2 3 3 3 3 3 6 3 2 6 10 12 13 14 13 13 12 11 10 7 7 11 14 14 15 18 19 19 19 18 18 20 21 21 20 19 18 18 18 18 17 17 16 15 15 16 16 16 15 15 14 14 13 13 12 12 12 12 12 13 13 12 11 10 10 10 10 9 9 8 7 6 5 5 5
6 3 2 3 3 2 2 2 1 1 1 2 2 2 3 3 3 5 6 4 4 8 11 13 14 14 14 15 14 13 12 10 9 10 12 14 17 19 20 20 20 19 18 19 21 21 19 18 18 18 17 17 16 16 15 15 14 14 14 14 14 14 14 13 12 12 11 11 12 12 12 12 13 13 13 12 12 12 11 10 9 8 7 7 6 5 6
3 1 2 2 2 1 2 2 3 2 1 2 2 2 2 1 1 4 7 8 8 9 10 13 15 14 14 16 16 13 13 13 10 7 8 12 16 19 20 20 20 19 18 19 20 20 19 18 17 17 17 16 16 15 14 13 13 13 13 13 14 14 13 13 12 12 11 11 10 10 10 10 10 11 11 12 12 11 11 10 8 8 8 7 7 6 5
1 3 3 1 2 4 5 4 4 3 3 3 2 4 6 5 2 2 6 9 12 12 11 13 16 16 16 19 18 15 14 15 10 5 7 12 16 18 19 19 19 19 19 18 19 19 18 18 18 17 17 16 15 15 14 13 12 12 12 13 14 14 13 12 11 11 11 10 9 9 8 7 7 7 7 8 8 8 7 7 7 7 6 6 6 6 5
1 4 5 5 6 7 7 6 5 5 5 5 5 6 7 4 0 3 7 10 14 15 13 13 16 19 20 22 20 17 16 18 15 11 9 10 13 17 19 19 18 18 18 17 17 18 18 18 18 18 17 17 16 15 15 14 14 14 13 13 13 12 11 11 10 10 10 9 8 8 7 5 5 5 4 5 5 5 4 4 4 4 4 5 5 4 4
2 6 8 8 9 8 7 6 6 5 7 8 8 8 9 7 4 6 12 13 14 16 15 15 18 20 20 21 21 19 19 21 20 14 9 7 11 15 18 19 18 17 17 17 17 17 18 18 18 17 17 16 15 14 14 14 14 14 15 14 13 12 11 10 9 9 8 8 7 7 6 5 4 4 4 3 2 3 4 4 3 3 3 3 4 4 3
5 9 9 9 9 8 7 7 7 7 9 11 11 11 12 12 12 13 15 14 13 14 15 16 18 18 18 19 21 21 21 22 20 15 10 9 12 14 16 19 19 18 18 18 17 17 17 16 16 16 15 14 13 12 12 11 11 12 12 13 13 12 10 8 8 8 7 7 6 6 5 4 3 3 3 2 1 1 1 2 2 3 4 3 1 4 4
8 9 8 7 8 9 10 11 10 10 12 14 14 14 14 14 14 15 14 13 13 14 14 15 15 15 14 16 17 17 18 20 18 16 15 14 15 16 17 19 19 18 18 18 16 16 16 15 14 14 14 12 12 11 10 10 9 9 9 9 10 10 8 7 7 6 6 6 6 5 3 3 3 3 2 2 2 3 2 1 2 3 2 4 2 3 4
10 9 6 7 10 12 13 12 11 11 13 14 15 17 17 15 13 12 10 9 10 12 13 12 12 12 13 13 10 7 10 16 17 15 15 15 16 16 17 18 18 18 17 16 15 15 14 13 13 13 12 11 10 9 9 9 9 9 9 9 9 8 7 6 6 5 5 5 5 3 2 2 2 2 3 3 3 4 4 3 3 5 4 1 2 5 7
9 8 7 10 13 14 14 13 11 12 13 13 14 16 18 17 15 12 9 8 8 8 10 10 10 10 13 14 11 8 8 13 15 14 14 15 16 16 17 17 17 16 15 14 14 13 13 12 12 11 10 9 8 8 8 9 9 9 9 10 10 9 8 7 6 5 4 4 4 3 2 2 3 3 4 4 4 4 6 5 4 6 6 4 4 6 4
9 9 10 12 14 14 13 12 12 12 12 12 13 15 16 18 17 14 11 8 5 3 5 8 10 10 11 11 11 12 14 16 16 14 13 13 14 14 14 14 15 14 13 13 12 12 12 12 11 10 10 9 9 9 8 8 8 8 7 8 10 10 9 7 6 5 4 4 4 4 4 4 4 4 4 5 5 6 6 7 6 7 7 7 8 9 6
9 10 11 12 13 12 12 11 11 12 13 13 13 13 14 16 17 16 14 12 7 3 2 6 10 10 11 12 13 14 16 17 16 16 16 15 15 16 16 16 15 14 12 12 11 11 11 11 11 10 10 9 10 10 9 8 7 7 6 6 7 8 8 6 5 4 4 4 4 5 5 5 4 4 5 5 6 6 6 6 6 7 8 8 8 9 8
12 11 12 13 12 12 12 12 12 13 13 13 13 12 13 15 17 16 16 17 14 9 7 9 11 10 12 14 14 15 17 17 16 16 15 15 15 16 16 15 13 12 11 11 11 10 10 10 10 9 9 9 9 9 8 8 7 6 6 5 5 5 6 6 5 4 3 4 5 5 5 4 5 5 6 6 6 6 6 6 7 7 7 7 8 7 6
13 10 12 15 15 13 13 12 11 11 12 12 13 14 15 16 17 16 16 18 16 12 12 15 14 11 11 12 13 15 16 15 13 13 14 14 14 14 13 12 12 12 11 10 10 9 9 8 8 7 7 7 7 7 7 7 6 6 6 5 5 5 5 5 5 5 5 5 6 5 5 6 6 7 7 7 6 6 6 6 7 7 7 8 8 6 4
11 7 9 12 12 11 11 11 11 11 12 12 12 14 15 17 18 17 16 16 16 15 17 18 17 14 12 12 12 14 14 13 12 13 13 12 12 12 12 12 11 11 10 9 9 8 7 6 5 5 5 6 7 7 6 6 6 6 5 5 5 5 5 5 5 6 6 6 6 6 6 7 6 6 6 6 6 6 6 7 7 8 8 9 9 8 7
11 8 9 10 13 12 11 12 13 13 12 12 13 14 16 18 19 19 18 18 18 19 19 19 18 16 14 13 13 14 14 13 13 13 11 11 11 10 10 10 10 9 9 8 7 6 5 5 5 5 5 6 7 7 6 6 7 7 5 5 4 4 4 4 4 4 4 4 5 5 5 5 4 4 5 6 6 7 7 8 8 9 9 10 10 10 11
13 11 8 10 15 16 13 12 13 14 14 13 14 16 17 19 20 20 19 19 19 20 20 19 18 16 14 13 14 14 14 13 12 11 10 10 9 9 9 9 8 7 7 6 6 5 5 5 5 5 5 6 7 7 7 7 7 6 4 4 4 3 3 3 4 3 3 4 4 4 4 4 4 4 5 6 7 8 8 8 9 9 10 10 11 11 11
14 12 8 10 15 17 15 12 13 14 15 16 16 17 18 20 20 20 19 19 20 20 19 18 17 16 15 15 14 14 13 12 12 11 10 9 8 8 8 6 5 6 6 6 5 5 5 5 5 5 6 7 8 8 6 7 7 6 4 3 3 3 3 3 3 3 3 4 4 4 4 5 5 6 6 6 7 7 8 8 9 9 10 10 11 11 12
11 10 10 11 13 13 11 10 12 14 15 16 17 18 19 21 21 21 20 20 20 19 18 17 16 16 15 14 14 13 12 12 11 10 9 9 8 8 8 6 5 6 6 6 6 6 6 6 6 6 6 7 7 7 6 6 6 4 3 3 3 3 3 3 3 2 3 3 3 3 3 4 5 5 6 7 7 7 8 8 8 9 9 10 10 11 11
9 10 11 13 15 15 10 10 12 14 16 17 18 19 20 21 22 21 21 20 19 18 17 17 15 14 14 13 12 12 11 11 10 9 9 9 9 8 8 7 6 6 6 6 6 7 8 7 5 5 5 5 5 5 6 6 4 3 2 2 2 3 3 3 3 3 3 4 3 3 4 5 5 5 6 6 7 7 8 8 8 9 9 10 10 10 10
11 13 15 16 18 21 18 15 14 16 18 18 20 21 21 22 22 21 21 20 19 18 18 16 15 14 13 12 12 12 11 10 9 8 8 8 8 7 7 7 6 6 6 6 7 7 7 6 5 5 5 4 2 3 3 3 3 2 3 3 3 3 3 3 3 4 4 4 4 4 5 5 5 5 6 7 7 7 8 8 8 9 9 9 10 10 10
13 16 17 16 18 22 20 17 16 18 19 19 21 22 22 22 22 21 21 20 19 18 17 16 15 14 13 13 12 12 11 9 9 8 7 6 5 4 6 8 7 7 7 7 7 6 6 5 4 5 4 4 3 5 4 2 2 2 3 3 3 3 3 3 3 3 4 4 4 5 5 5 5 6 7 7 7 8 8 8 8 8 9 9 10 10 9
15 17 16 15 18 21 20 18 18 20 20 20 22 23 23 22 22 21 21 20 19 18 17 16 15 15 14 14 13 12 10 9 9 8 7 5 3 3 5 8 9 9 9 7 5 5 5 4 3 3 4 5 7 6 3 2 2 3 3 3 2 3 3 3 3 4 4 4 4 4 4 5 5 5 6 6 7 7 8 8 8 9 9 9 9 9 9
18 18 16 16 18 19 17 17 18 19 19 20 21 23 22 22 21 21 21 20 19 18 18 17 16 16 15 14 13 11 10 10 9 8 8 7 5 4 6 7 9 11 11 7 4 5 6 5 3 5 8 9 8 4 2 2 2 4 3 3 3 3 4 4 3 4 4 4 4 4 4 4 4 4 5 5 6 6 6 7 8 9 9 8 8 8 9
17 17 17 18 19 18 16 17 18 18 18 19 20 21 21 20 20 21 21 20 20 19 18 17 17 16 15 13 12 10 10 10 9 9 8 7 7 8 9 8 9 11 11 7 5 6 6 5 5 8 11 10 7 4 3 2 3 4 3 3 4 4 4 3 3 4 4 4 4 4 4 4 4 4 4 4 5 6 6 7 7 8 8 8 8 8 9
17 17 16 17 17 18 19 19 19 19 20 20 19 18 19 19 19 19 20 20 19 18 17 17 17 15 14 13 12 11 10 9 9 8 7 5 7 11 12 10 10 12 11 7 6 6 5 5 8 11 12 10 5 2 2 3 4 4 3 4 4 3 3 3 3 3 4 4 4 4 4 4 4 4 3 3 4 5 5 6 7 7 7 7 7 7 7
17 17 17 16 14 16 20 21 21 20 20 18 16 16 17 18 18 18 18 18 18 17 16 16 15 14 13 13 12 11 11 10 10 9 7 6 10 13 12 11 12 13 9 6 6 7 7 8 10 12 11 7 3 1 2 4 4 3 4 4 3 3 3 3 3 3 4 4 3 2 2 3 4 4 4 3 4 5 6 6 6 7 6 7 7 7 6
17 17 18 19 19 21 23 23 21 20 18 17 16 17 18 18 18 18 18 18 17 16 15 15 14 13 13 12 11 10 10 10 10 10 9 9 12 13 12 11 14 14 10 7 8 8 8 9 12 12 10 6 3 2 3 4 4 3 4 4 3 3 3 3 2 3 3 3 3 2 2 2 3 3 4 4 5 6 6 6 6 6 7 7 7 7 7
17 16 17 19 20 21 21 21 18 17 16 17 17 18 19 19 19 18 18 18 17 16 15 14 13 13 12 11 10 10 9 8 8 10 11 11 12 13 12 13 16 15 10 7 8 8 8 10 13 12 8 4 2 3 4 4 3 3 3 3 3 4 4 3 3 3 3 3 3 2 2 2 3 4 4 5 6 6 6 6 6 7 7 6 7 7 7
16 15 15 15 16 16 17 16 15 15 16 17 18 19 20 19 18 17 18 18 17 15 14 14 13 12 12 11 10 10 10 8 9 11 13 12 12 12 12 13 16 14 10 8 9 9 10 12 13 10 5 3 2 3 4 4 3 3 3 3 3 4 4 3 3 4 3 2 1 1 2 3 3 3 4 5 5 5 6 6 6 6 6 6 6 7 7
14 13 13 13 14 14 14 15 15 17 17 18 19 20 19 18 16 16 17 17 16 15 14 13 12 12 12 12 11 11 11 10 11 13 13 12 12 12 13 14 14 12 9 9 10 10 10 11 11 8 5 4 4 4 4 3 3 4 3 2 2 3 3 2 2 2 2 1 1 2 2 3 3 4 4 4 4 5 5 5 6 6 6 6 6 6 6
15 15 15 14 14 14 14 14 16 16 16 16 18 19 18 17 16 16 16 16 15 14 14 13 12 13 13 13 12 12 12 13 13 14 13 12 12 13 13 14 13 12 10 10 11 10 10 10 10 8 6 5 5 5 5 5 4 4 3 3 2 2 2 1 2 1 1 2 3 4 5 4 4 5 5 5 5 5 5 5 6 6 6 6 5 5 6
Wind_Direction
264 272 272 273 263 258 285 282 271 269 261 254 255 246 275 287 282 284 302 282 283 301 97 245 274 23 82 350 282 102 160 166 162 164 170 185 184 180 219 228 216 229 228 201 179 185 188 185 188 190 187 190 194 195 195 194 192 192 193 195 196 195 198 204 207 209 212 214 212 208 205 203 205 218 230 233 233 229 223 225 225 222 225 226 220 213 213
285 281 272 260 249 230 252 267 263 263 259 256 261 255 233 238 262 280 276 261 277 285 220 211 225 104 114 231 218 115 135 151 141 151 156 160 170 172 228 253 235 228 241 225 189 185 189 187 186 188 188 189 193 195 195 195 195 194 194 196 197 198 200 202 204 204 204 207 206 198 194 193 192 203 220 230 235 236 230 229 231 231 230 229 229 225 215
283 275 263 250 249 242 235 239 241 247 255 252 249 257 258 251 263 291 299 287 274 285 293 237 189 118 133 220 184 117 120 126 138 153 132 111 118 160 192 235 242 245 277 263 219 192 188 186 184 185 187 188 191 194 193 193 194 195 195 197 200 202 202 200 199 196 191 189 191 193 197 200 199 201 208 214 222 229 231 231 234 236 233 229 233 236 232
275 271 259 248 267 281 267 251 243 239 245 252 251 250 256 274 295 297 290 280 269 308 312 278 205 137 170 190 137 101 100 110 122 137 135 129 103 99 187 220 226 209 223 244 230 196 182 182 182 184 186 186 189 192 193 193 193 193 195 198 200 203 203 199 193 185 176 175 182 191 197 200 202 205 207 208 209 211 219 228 230 228 230 232 232 236 250
280 275 283 320 307 291 273 268 289 261 247 262 277 268 210 180 231 263 279 300 329 350 287 269 232 148 169 123 81 63 69 96 108 119 140 138 113 88 72 51 307 189 208 263 260 201 175 173 170 177 181 182 188 190 190 191 188 190 196 199 201 203 203 201 195 184 176 178 183 187 191 195 199 205 207 208 209 208 210 220 228 228 226 226 224 230 253
274 274 342 351 283 274 262 84 42 308 278 286 287 284 279 239 223 207 271 288 304 298 272 272 282 94 79 61 59 61 68 88 113 124 150 140 118 107 96 83 65 48 34 12 10 20 33 99 124 142 164 177 188 189 188 189 188 193 200 201 202 205 203 205 208 197 181 179 180 179 183 188 194 201 203 204 211 215 214 217 223 225 222 218 219 225 218
274 288 319 261 264 289 57 111 137 274 289 292 282 279 276 264 239 210 222 241 286 284 266 257 92 106 101 85 74 63 52 45 74 122 169 140 111 112 111 110 109 98 70 32 29 32 30 49 81 87 100 146 178 186 190 193 192 197 204 206 207 209 205 206 212 205 182 177 178 176 179 184 190 196 197 202 212 214 213 216 216 218 224 219 209 217 214
264 269 253 254 284 351 256 239 241 280 275 270 274 275 270 268 262 239 225 206 256 260 249 203 132 147 135 110 83 57 44 47 47 43 36 9 59 97 107 115 120 112 102 82 69 62 49 51 68 75 75 83 106 136 158 175 188 197 206 214 215 213 209 206 207 202 188 182 181 177 177 181 187 193 196 203 211 211 209 212 208 207 219 218 211 229 220
252 266 263 269 291 285 256 240 214 263 285 296 302 291 283 282 257 206 150 150 240 244 218 174 176 145 126 92 68 58 44 50 53 40 56 74 78 94 104 115 119 112 109 108 100 92 78 63 63 76 81 86 92 92 85 82 86 97 97 146 218 219 213 201 195 194 186 177 169 164 169 178 185 194 197 197 200 203 206 210 203 197 207 220 217 190 92
243 267 276 272 275 276 270 114 118 107 320 330 325 294 284 309 316 206 156 176 225 233 199 169 187 154 149 234 69 59 39 46 61 51 50 74 92 102 107 114 113 108 108 105 96 93 87 74 69 75 81 85 88 82 73 69 66 60 54 42 19 340 224 195 192 188 177 169 166 167 175 188 196 201 204 200 198 198 202 205 202 188 169 138 141 132 111
248 256 265 265 272 281 110 132 210 271 340 332 315 280 265 4 10 347 275 223 238 250 218 150 181 219 190 136 68 50 28 34 62 65 60 69 88 105 108 107 103 100 100 96 90 91 93 90 90 91 89 86 84 79 73 69 65 58 47 31 7 341 331 219 206 193 176 180 200 198 191 192 196 194 189 192 194 188 186 186 167 149 140 120 114 115 107
241 244 253 260 273 305 93 157 247 313 8 324 293 272 255 11 9 345 295 259 281 282 256 156 165 260 271 123 131 112 67 63 71 73 74 76 91 111 110 103 94 91 90 88 86 88 93 97 101 99 95 89 84 80 78 75 70 65 56 43 29 340 214 155 169 170 163 177 197 194 183 179 183 178 167 169 172 153 139 136 120 110 109 97 89 87 88
238 238 247 257 267 32 65 223 273 352 352 284 273 275 336 5 344 326 300 227 220 234 234 144 124 71 118 145 149 151 144 112 92 82 83 87 94 110 112 107 97 91 91 92 94 98 101 102 100 100 97 91 84 82 80 75 71 69 69 68 69 83 114 124 127 135 145 151 144 129 125 127 129 128 127 129 130 121 114 113 108 100 94 89 87 86 86
249 253 259 262 262 46 24 328 11 33 285 284 287 271 289 305 285 288 286 257 216 176 148 153 114 127 144 155 148 146 142 122 112 106 100 98 99 103 106 108 105 101 97 96 98 103 106 103 98 96 95 90 87 84 79 75 76 79 80 79 78 83 92 100 105 111 116 115 105 96 98 102 99 97 100 103 106 111 111 106 101 100 101 104 108 105 93
248 250 257 267 278 14 247 232 181 208 264 295 339 164 198 263 274 267 274 308 329 129 141 160 260 148 149 158 146 139 133 123 120 119 115 112 108 102 102 106 109 107 99 93 91 91 92 92 91 91 91 91 91 89 84 83 87 88 87 85 83 82 85 89 93 96 96 96 95 93 94 95 94 93 94 95 98 100 102 101 102 104 107 107 104 99 91
257 247 248 272 247 169 181 240 270 353 42 359 314 290 231 238 274 293 304 46 343 8 131 151 191 180 146 137 133 133 133 130 126 122 120 118 112 105 102 104 105 104 100 96 93 87 82 82 83 85 90 93 93 91 91 92 90 87 85 84 84 83 83 86 88 90 90 91 92 93 93 93 93 93 93 95 97 97 100 105 109 107 102 97 96 97 98
279 277 305 50 175 205 240 276 288 328 338 258 290 299 289 288 331 336 314 75 94 35 112 151 165 146 107 84 60 48 117 138 133 126 120 117 114 112 109 106 102 100 99 99 97 92 88 87 88 90 94 98 97 96 96 95 91 88 85 83 83 83 84 85 87 87 88 88 89 91 91 93 98 100 99 99 100 99 102 107 108 104 98 94 96 99 102
280 277 267 241 235 241 259 268 282 318 287 280 290 291 289 307 347 341 340 35 87 97 75 109 116 105 92 82 60 28 12 65 115 118 116 114 116 116 113 110 105 100 99 99 98 97 96 95 95 96 97 97 98 98 98 95 92 91 89 86 85 83 83 85 87 87 86 88 90 90 90 93 97 95 93 95 100 102 104 104 102 101 100 100 103 100 90
280 256 212 220 260 255 259 269 256 235 260 277 291 287 289 304 312 351 55 82 119 127 115 108 107 108 109 107 97 77 53 48 90 110 114 113 114 114 114 115 114 109 105 103 102 102 102 101 101 102 102 101 101 101 100 97 95 92 91 90 88 86 85 86 87 87 87 89 93 95 94 96 96 89 84 87 91 92 93 95 98 100 99 98 96 95 91
253 250 224 230 260 232 239 264 266 257 256 240 260 276 273 252 260 97 113 145 164 137 133 128 122 122 125 121 115 110 100 91 103 111 111 109 110 112 113 113 112 110 110 110 108 106 105 104 106 107 107 106 106 104 101 100 99 97 96 95 93 92 91 89 87 86 84 84 86 86 82 80 82 82 77 71 68 66 65 70 79 87 92 90 78 72 84
246 244 224 225 241 226 207 228 266 313 323 292 262 275 265 241 225 136 127 146 152 138 143 142 137 138 139 132 123 114 106 104 115 117 116 116 115 114 114 112 110 109 110 109 107 106 105 106 107 107 107 107 105 102 100 100 102 102 102 101 99 96 95 94 91 89 85 81 80 80 77 75 78 80 77 73 71 72 72 75 80 81 86 91 81 69 73
248 249 188 218 260 248 186 179 101 66 312 274 259 252 238 227 198 138 125 128 138 137 143 149 147 143 140 136 130 123 119 116 114 117 122 125 122 117 114 112 110 110 110 107 105 106 107 109 108 106 106 106 102 100 98 98 98 99 100 99 97 93 92 92 91 90 87 82 79 80 80 80 80 79 79 79 80 81 80 82 85 83 83 89 88 82 77
253 224 168 207 237 176 127 96 83 73 322 282 233 250 282 304 187 138 128 133 143 142 148 156 149 136 134 134 125 112 105 98 92 107 132 126 117 112 111 112 112 113 111 107 105 105 106 106 104 102 100 99 96 96 97 97 98 98 97 96 94 89 87 86 86 87 89 86 85 85 85 86 85 82 80 78 77 79 81 82 84 83 83 87 94 102 101
224 154 152 164 134 118 106 89 80 58 11 357 16 25 29 28 8 111 120 140 152 150 152 155 145 132 129 127 120 114 110 103 98 113 129 120 113 109 109 112 113 112 109 105 104 104 103 101 100 97 95 93 92 91 90 91 93 95 96 97 97 94 93 93 91 91 92 92 93 93 94 100 106 107 107 102 92 82 80 82 86 88 86 86 88 92 102
142 110 112 114 109 108 105 94 83 70 60 58 56 61 71 76 193 127 124 143 155 151 146 146 140 133 130 129 127 125 117 105 95 86 87 106 117 116 113 114 112 107 106 104 103 104 103 101 100 98 95 93 92 89 86 82 80 78 79 83 89 92 94 96 95 95 96 96 96 95 96 103 111 117 128 132 128 127 123 109 98 93 88 86 84 77 80
140 116 122 126 121 119 119 107 94 87 84 81 80 88 93 80 66 111 123 132 142 144 140 136 135 134 133 131 130 127 120 115 114 113 111 118 121 118 117 116 112 107 105 104 103 105 105 103 103 101 98 97 95 93 90 86 82 79 77 77 78 81 83 85 86 87 89 88 86 86 86 89 96 99 92 92 122 153 160 164 168 157 125 87 69 59 45
165 141 143 143 136 135 126 107 101 100 94 90 89 93 96 90 88 98 103 103 111 118 115 115 120 122 123 126 128 128 125 124 127 138 152 143 128 122 119 115 112 108 106 102 100 98 96 93 94 94 92 92 93 94 94 94 97 102 103 101 96 91 86 85 84 81 78 74 67 63 64 63 62 67 71 72 81 98 121 179 198 191 187 182 79 22 10
174 159 161 157 139 126 113 108 112 110 104 103 104 104 103 100 96 95 93 94 99 97 87 84 87 91 104 120 127 133 138 139 142 155 163 150 135 128 121 115 112 110 106 103 101 98 93 90 92 92 89 87 89 90 89 87 85 88 93 100 101 95 85 79 77 77 77 72 59 48 47 44 30 25 22 4 358 5 357 342 356 346 241 189 186 316 314
171 169 164 136 124 122 119 119 122 117 113 117 118 116 111 101 88 83 79 76 84 87 85 81 73 69 85 101 104 125 156 153 148 147 143 134 128 125 119 113 109 105 102 100 99 98 95 93 92 90 87 85 86 86 86 85 79 71 67 66 67 67 65 62 62 71 83 79 65 55 48 24 10 4 359 355 349 337 326 332 350 337 317 236 218 264 259
169 168 146 128 131 136 134 130 129 127 129 132 128 122 115 104 94 89 74 55 55 73 92 106 101 84 86 94 86 71 90 107 110 114 118 121 125 125 121 115 108 102 100 100 98 95 93 90 85 82 79 79 79 81 83 86 84 81 78 71 64 60 60 55 47 50 66 68 58 52 40 23 24 19 360 350 344 333 330 332 329 318 310 303 299 291 264
173 159 141 139 145 147 142 137 136 137 139 140 135 128 121 114 113 115 107 89 66 42 76 105 112 105 105 115 113 99 94 97 102 106 107 104 104 104 104 103 102 102 105 106 103 98 93 87 80 73 68 67 68 69 72 77 78 80 88 86 76 69 64 57 48 46 51 54 54 48 33 21 20 14 0 355 356 350 341 334 329 325 320 317 316 316 320
179 162 153 155 159 156 149 146 145 145 147 147 142 137 132 128 127 128 124 123 140 206 169 112 112 116 126 130 123 110 103 100 98 96 92 88 85 84 82 84 89 95 99 100 96 92 89 84 78 70 63 60 60 60 62 66 69 70 77 86 86 78 68 58 52 54 56 60 61 49 32 18 12 10 13 11 360 347 340 336 333 329 325 322 320 319 327
180 170 165 169 172 168 161 157 154 152 154 155 150 146 142 137 134 136 137 140 153 177 163 129 123 129 132 128 120 112 106 100 95 93 93 89 85 83 83 85 88 88 88 85 82 80 78 75 71 65 59 55 55 54 54 57 62 61 56 55 67 80 76 60 48 45 50 54 50 38 23 15 13 13 13 6 351 342 340 337 332 328 324 323 325 328 342
184 185 183 181 178 171 163 158 157 156 155 155 154 151 149 146 145 147 148 148 154 162 150 137 135 133 126 122 121 118 112 106 101 98 96 92 89 88 87 87 85 82 78 75 73 71 68 65 63 62 58 55 54 51 47 47 55 60 52 40 40 52 54 42 34 31 33 37 34 26 20 21 17 11 6 356 347 345 342 336 333 333 331 326 325 330 347
184 205 213 190 164 148 153 159 162 162 157 153 152 155 156 155 154 154 153 153 155 153 145 139 139 136 131 130 128 118 110 107 107 106 103 102 100 98 96 94 92 88 83 77 71 69 67 62 60 65 68 65 61 54 48 44 50 57 54 44 40 42 41 36 35 34 30 25 20 19 21 15 3 358 359 352 341 336 336 336 336 334 328 324 324 324 326
178 202 216 176 140 141 164 170 165 161 155 149 151 155 154 153 153 153 152 151 150 147 143 143 145 145 143 139 129 118 114 114 114 113 112 110 108 107 107 105 104 102 98 89 82 78 79 80 81 82 84 77 66 60 61 62 57 53 52 49 46 49 56 55 52 50 45 37 30 25 14 351 334 344 352 343 334 334 334 333 332 329 324 323 324 323 320
180 194 196 151 140 152 169 168 160 157 152 148 151 153 151 149 149 148 146 144 143 144 145 146 148 147 141 133 126 121 121 123 122 120 120 118 117 118 118 117 122 127 122 109 100 96 93 92 89 84 82 76 63 57 69 80 68 49 44 52 48 46 59 66 64 64 58 47 36 20 359 345 351 2 357 347 346 345 341 338 336 333 326 323 323 324 323
176 178 164 141 145 153 156 157 161 162 156 152 153 154 153 150 148 144 143 143 144 146 147 147 144 139 134 129 128 126 125 125 125 124 123 123 123 125 123 123 136 141 129 118 117 112 102 92 83 72 72 73 59 45 57 83 75 49 40 59 60 51 58 69 69 68 61 49 36 20 9 11 15 11 3 2 1 354 351 354 350 339 333 333 335 335 336
165 154 143 140 139 137 141 159 170 168 162 158 155 153 153 151 148 146 146 148 149 150 148 144 140 137 134 132 130 129 129 129 129 129 128 126 122 118 108 101 108 119 119 118 119 112 99 89 80 70 69 70 59 46 58 85 84 55 39 59 67 55 52 52 51 59 65 54 39 25 22 24 22 14 8 6 359 354 360 6 358 345 344 349 350 349 350
156 145 146 145 136 134 152 185 184 170 165 162 156 154 155 154 151 149 149 149 152 153 150 145 143 141 140 138 135 134 134 136 136 134 132 128 126 126 120 115 118 123 119 114 112 108 99 86 76 75 73 65 59 62 67 71 66 47 41 57 65 64 62 50 33 38 48 41 24 18 22 17 9 7 8 3 354 354 359 359 352 350 353 355 354 354 356
157 156 159 159 150 150 165 185 182 168 165 164 159 158 158 155 153 152 151 151 154 154 152 151 151 149 147 146 144 142 142 143 144 146 144 142 147 154 149 137 132 132 129 121 113 109 98 78 72 88 81 59 72 123 105 42 13 42 68 58 47 54 63 55 38 38 42 30 13 12 16 7 356 360 6 359 351 352 354 348 346 350 353 351 351 352 353
161 160 161 164 157 153 160 173 174 167 164 163 161 160 160 157 155 153 151 151 154 155 154 153 153 152 152 152 149 148 149 150 150 153 154 155 164 171 153 140 138 144 143 131 116 110 106 91 88 99 83 63 100 135 126 40 18 83 88 72 61 62 62 53 44 45 45 31 17 14 13 3 356 1 4 355 347 351 353 347 345 353 357 354 352 353 354
160 157 159 166 162 155 157 166 170 165 161 159 160 161 161 159 156 154 152 152 154 154 154 152 150 151 153 152 149 149 151 152 153 156 154 144 130 117 128 137 145 148 143 137 133 136 128 109 101 138 151 139 131 124 87 25 57 99 90 81 87 82 69 59 51 48 47 37 24 19 13 4 358 3 5 357 350 352 353 346 342 347 354 353 350 353 357
158 156 160 165 160 152 151 159 162 160 157 158 160 162 162 160 158 156 154 155 155 154 154 154 153 154 155 154 152 153 155 155 159 163 156 144 133 121 122 135 148 150 146 145 148 140 126 114 122 154 156 147 135 112 34 22 98 99 86 85 87 76 69 67 61 54 52 45 31 19 11 2 1 10 12 360 348 348 349 345 342 344 347 348 347 350 354
152 152 158 161 155 148 148 155 158 158 156 156 158 160 160 160 159 157 154 154 155 156 157 158 157 158 160 159 157 157 159 160 166 170 167 165 167 159 146 144 153 154 150 147 143 133 129 138 149 146 142 137 125 86 46 77 107 99 88 88 84 76 74 76 70 66 63 54 38 24 9 357 358 11 14 354 342 347 351 345 340 343 346 346 346 349 352
142 143 151 155 150 149 151 153 154 156 155 154 155 157 158 157 157 156 156 156 156 157 161 163 161 159 161 159 154 153 155 158 164 172 175 168 158 153 151 154 159 154 145 136 135 138 148 165 161 148 140 136 124 85 81 120 116 100 96 99 93 87 87 82 74 74 71 55 41 33 21 5 359 9 15 354 338 349 356 347 338 343 349 346 342 348 355
133 138 146 150 152 155 154 151 150 154 156 155 156 157 157 156 155 154 155 156 155 155 158 159 157 155 157 156 156 159 162 161 161 165 162 144 140 145 149 154 155 152 144 138 147 155 163 168 163 154 146 138 128 119 139 131 115 101 104 103 92 89 92 84 74 79 78 64 50 48 44 27 12 10 10 1 350 354 358 348 337 340 347 340 330 338 356
132 138 145 150 157 160 157 153 153 156 158 157 155 154 156 156 154 153 153 152 149 148 149 149 148 150 154 158 163 170 171 168 166 165 160 152 150 150 152 155 158 158 155 153 160 169 172 165 158 155 150 141 135 146 141 128 117 114 117 108 96 94 92 79 69 76 77 70 63 49 33 44 43 20 358 360 10 4 353 342 338 344 350 341 327 328 342
134 138 143 148 154 155 154 154 155 155 154 153 150 149 150 151 150 152 154 152 148 146 147 147 146 149 154 160 168 173 173 175 173 165 158 156 155 152 152 161 166 164 159 152 158 173 181 169 158 154 151 145 150 154 139 123 113 112 113 111 108 99 83 66 67 69 61 65 82 70 4 14 49 30 353 352 11 7 348 340 346 349 345 338 331 330 334
135 141 146 149 150 152 154 155 152 149 149 149 147 147 150 151 151 155 158 156 153 153 154 153 153 156 162 167 170 168 166 166 162 155 152 155 155 151 153 160 163 161 161 160 160 166 174 170 162 157 158 171 175 158 139 132 138 138 130 132 137 123 107 111 126 111 78 40 53 51 355 357 21 15 345 344 359 358 344 344 350 345 334 331 333 337 338
139 144 143 141 141 147 152 152 148 147 149 150 148 151 156 157 155 156 159 159 158 159 161 160 161 165 168 169 169 166 162 159 155 152 153 156 155 152 155 160 162 163 171 173 167 166 174 178 176 178 186 187 170 156 148 154 163 151 132 138 162 140 121 151 186 156 111 52 323 313 318 326 335 334 325 327 336 337 334 338 342 341 339 340 339 338 337
139 136 132 130 133 137 138 137 137 140 145 149 152 156 159 159 156 155 158 162 164 165 165 164 165 169 171 170 168 166 163 160 158 156 158 158 157 156 159 164 168 173 179 179 175 176 179 180 182 192 201 193 174 163 163 169 172 163 151 159 174 156 139 198 246 271 359 345 305 295 294 302 313 315 311 309 313 315 318 326 332 335 339 340 339 336 335
Height
769 765 763 765 770 776 778 777 776 775 774 777 781 788 796 797 795 792 786 785 785 776 770 773 772 772 777 776 770 768 767 765 765 765 766 767 768 770 770 769 768 768 767 763 762 766 768 770 774 776 778 782 784 786 788 789 791 794 796 798 800 802 805 807 808 809 811 812 813 816 817 819 822 823 823 824 824 824 824 825 825 826 826 827 827 828 830
769 765 763 762 768 776 779 779 777 774 773 775 776 777 781 788 793 787 780 784 785 774 769 769 766 769 774 770 766 767 768 767 767 768 768 768 770 771 772 771 770 770 769 764 762 765 767 769 772 774 776 779 781 784 786 788 790 792 794 796 798 800 803 804 806 808 809 811 812 814 816 818 819 821 822 823 823 824 824 824 825 825 825 826 826 827 828
776 766 762 762 765 770 776 778 774 771 772 772 773 774 771 775 784 783 778 783 786 777 770 764 761 768 773 769 768 770 769 768 768 768 769 770 771 772 772 774 773 770 769 768 766 764 766 768 770 773 776 777 780 783 784 787 789 790 793 794 796 798 800 802 804 806 807 809 810 812 813 816 817 818 819 820 821 823 823 823 824 824 824 825 825 826 827
782 765 760 762 762 765 771 772 769 769 771 771 769 768 769 776 785 786 783 784 780 775 775 769 761 768 776 772 770 771 770 769 769 769 770 769 770 772 774 775 773 770 772 774 770 764 764 767 769 772 775 777 779 782 783 786 788 790 792 793 795 796 797 800 802 803 804 806 808 810 811 813 815 817 818 819 820 821 821 822 823 823 824 824 825 826 826
783 765 760 765 770 781 783 773 766 767 767 767 767 764 766 775 783 785 787 784 776 774 780 776 766 770 776 772 770 772 772 770 770 771 770 768 768 770 774 776 774 773 775 777 773 769 767 768 770 773 775 777 780 781 784 786 787 789 791 792 794 795 795 797 799 799 801 803 806 808 809 811 813 815 816 818 818 819 820 821 822 822 822 823 824 825 825
786 767 762 776 790 798 791 771 764 767 766 767 772 770 767 768 772 777 781 780 777 779 783 778 770 771 773 771 770 771 771 771 772 772 771 770 766 766 770 774 774 774 775 776 775 774 772 771 772 774 776 778 780 782 784 785 787 788 790 791 792 793 794 795 797 798 799 801 804 806 808 810 812 813 815 817 818 819 820 820 821 821 821 822 822 824 824
784 769 773 798 806 792 775 763 760 762 763 765 768 768 764 762 764 770 774 774 775 781 781 774 769 770 770 770 771 770 769 771 771 772 773 773 769 765 767 772 773 773 774 776 776 776 776 776 775 776 777 779 781 782 784 785 786 787 789 790 791 792 793 794 796 797 797 799 802 804 806 809 810 811 813 815 816 818 818 819 820 820 820 821 822 823 824
785 781 786 800 794 773 763 762 760 760 763 765 768 771 766 759 761 767 771 775 778 780 777 771 768 770 769 770 771 772 771 771 772 773 774 775 774 770 769 771 773 772 774 777 778 777 778 778 778 778 779 780 782 784 784 785 786 787 789 790 790 791 792 793 794 795 796 798 801 803 806 808 809 811 812 813 815 817 818 819 819 819 820 821 821 823 824
784 787 785 781 777 772 768 763 760 762 764 764 769 776 770 758 759 765 771 779 784 779 774 770 769 771 775 777 776 775 775 774 774 775 774 774 776 773 771 773 774 773 775 779 778 777 777 779 779 779 780 781 783 785 786 786 787 788 789 790 790 790 791 792 793 795 796 798 801 803 805 807 809 811 812 813 815 816 817 818 819 820 821 821 821 822 824
778 788 792 788 789 787 776 765 760 757 759 758 762 773 773 760 756 760 765 774 780 775 770 770 769 773 783 788 783 779 780 778 777 778 776 775 776 775 774 776 776 775 777 778 776 775 777 779 781 781 782 783 784 786 788 788 788 789 790 790 791 791 791 792 793 795 797 798 800 803 805 806 808 810 810 812 813 814 814 816 819 821 821 821 822 822 823
780 791 799 796 792 783 770 765 760 754 756 757 760 775 781 771 764 766 767 769 772 770 770 773 773 776 786 792 788 783 784 782 779 780 779 777 778 777 777 778 777 775 776 776 776 777 779 781 782 783 784 784 785 787 789 790 790 790 791 791 791 792 792 793 794 796 799 800 802 804 805 806 807 808 809 811 812 812 813 815 818 819 820 822 822 822 822
782 787 791 785 777 769 762 761 759 754 754 758 772 791 792 776 770 772 771 772 774 773 773 774 775 777 783 788 787 784 784 783 781 781 781 780 781 780 779 779 778 775 774 776 777 780 783 784 784 784 785 786 788 790 791 792 792 793 793 792 792 792 793 794 796 798 801 803 804 805 804 805 807 807 808 809 811 812 813 815 817 819 820 822 823 823 824
775 779 782 775 767 763 761 760 758 755 758 768 784 794 786 774 772 772 771 774 775 774 774 774 775 778 778 779 781 781 781 783 783 782 782 782 782 782 782 781 780 778 778 780 781 784 787 788 786 785 785 787 790 793 793 793 794 794 794 793 793 793 793 794 796 799 801 804 805 805 805 806 807 808 808 809 810 812 814 815 816 818 820 822 825 827 827
772 772 773 772 770 765 760 759 757 758 770 783 785 779 771 770 772 771 769 768 766 769 776 776 774 776 775 774 776 779 780 782 783 783 784 784 784 784 784 784 784 784 784 786 787 788 790 790 789 787 786 788 793 795 795 796 797 797 796 796 795 795 796 796 798 800 802 804 805 807 808 808 810 811 811 812 812 814 815 816 816 819 822 824 827 830 829
771 774 776 783 785 773 760 761 765 766 774 780 773 767 768 769 766 765 766 764 761 765 775 780 777 775 775 775 775 778 780 781 783 784 785 785 786 786 786 787 786 786 787 789 789 790 790 790 790 789 789 792 796 798 798 800 801 800 799 799 799 799 799 800 802 803 805 805 806 810 812 812 812 814 814 815 816 816 817 818 819 822 825 827 828 829 830
770 777 780 783 781 768 758 763 768 767 767 766 763 765 767 765 762 762 764 764 763 764 771 780 782 779 777 777 778 780 783 782 783 785 785 786 787 788 788 789 788 788 789 790 791 791 791 791 792 793 794 797 799 800 802 803 803 802 802 802 802 802 803 805 806 807 808 809 810 813 815 816 816 816 817 817 818 819 820 822 824 825 826 827 829 830 832
767 769 769 768 766 760 757 760 762 762 761 760 760 763 762 760 761 762 762 764 766 765 767 774 778 779 781 782 783 785 786 784 783 785 786 787 789 790 790 791 791 791 791 791 793 794 794 795 797 799 800 802 803 803 805 805 805 805 805 805 805 806 807 809 810 811 811 812 814 816 817 818 818 818 819 819 820 822 823 824 825 824 825 828 831 833 834
762 761 759 759 760 760 758 757 758 761 761 759 758 761 762 761 761 762 763 766 768 768 769 773 778 783 785 786 788 789 789 788 786 787 789 789 791 792 792 793 794 794 794 794 795 796 798 800 802 803 805 806 806 806 807 807 807 807 807 807 808 809 811 812 813 814 815 816 818 819 820 821 821 821 821 821 822 824 824 825 825 824 825 828 831 833 833
769 769 763 758 761 762 760 759 759 760 761 760 759 761 762 761 761 763 766 769 769 770 772 777 783 787 787 787 788 789 791 793 793 793 794 794 793 794 795 796 796 796 796 797 798 799 801 803 804 806 807 808 808 809 810 810 810 810 810 810 811 813 814 815 816 817 818 819 821 822 823 823 823 823 824 824 825 826 826 826 826 826 826 828 830 832 833
767 768 762 759 760 760 759 761 760 759 760 761 761 761 761 761 763 764 767 769 770 771 774 778 783 785 787 789 789 789 793 797 797 796 797 797 797 797 797 798 799 799 799 799 800 801 802 804 807 808 809 810 811 811 812 813 813 813 813 814 815 816 817 818 819 820 821 822 823 824 825 825 825 825 826 826 827 827 827 827 827 827 829 830 831 833 834
763 761 760 760 762 762 762 761 760 760 761 762 762 762 762 762 763 766 770 772 772 773 775 777 779 783 786 787 789 790 795 799 800 798 798 798 798 798 799 800 801 802 802 802 801 802 804 806 808 809 810 811 812 813 814 815 815 815 816 816 817 818 818 820 821 822 823 824 825 826 827 827 827 827 828 828 829 829 829 829 829 830 831 832 833 834 835
767 763 761 762 765 770 769 764 761 762 762 762 764 765 764 764 764 767 773 777 777 776 777 777 779 782 784 786 788 790 794 799 802 802 802 801 800 799 800 801 803 805 806 804 804 805 807 808 810 811 812 813 814 814 816 817 817 818 818 818 818 819 820 821 823 824 825 826 827 828 829 829 830 830 830 830 831 831 831 832 832 832 833 833 834 835 836
763 759 758 758 762 768 768 763 762 763 761 762 765 766 765 767 766 767 774 780 781 780 780 780 781 783 784 787 790 791 794 798 802 805 807 806 802 801 802 803 805 807 807 807 807 808 809 810 811 812 813 814 815 816 817 818 819 820 820 820 820 821 822 824 825 826 827 828 829 830 831 832 833 833 833 834 833 833 834 834 834 835 835 835 835 836 837
755 754 754 755 758 763 764 762 763 764 763 764 767 768 769 771 771 771 775 780 781 781 781 782 783 785 786 789 793 795 796 798 801 806 809 808 805 804 804 805 807 808 808 809 809 810 812 813 813 814 815 817 818 819 819 820 820 821 821 821 822 824 825 826 827 828 829 830 831 832 833 834 834 835 835 836 836 836 836 836 836 836 837 837 837 837 837
752 752 752 754 758 761 762 763 764 765 766 768 770 772 773 774 772 773 777 781 781 781 781 783 785 787 788 790 795 798 798 799 802 807 811 812 810 807 806 807 809 810 810 812 812 813 814 815 816 817 818 819 820 821 822 822 822 823 823 824 824 826 827 828 829 830 831 831 832 833 834 835 835 836 836 836 837 837 837 837 837 837 837 838 838 838 838
752 752 753 756 759 760 762 765 767 768 769 771 773 774 775 776 776 777 779 782 783 783 783 784 786 789 791 792 796 799 800 801 806 811 814 815 814 811 808 810 811 812 813 814 815 816 817 817 818 819 820 821 823 823 824 825 825 826 827 827 828 829 830 830 831 831 832 832 833 834 834 835 835 835 836 836 836 837 837 837 837 837 837 838 838 838 838
751 752 755 760 763 763 763 766 769 770 771 774 775 776 777 778 780 781 782 784 785 786 786 787 789 791 794 795 798 801 802 803 807 812 814 815 815 813 812 812 813 814 816 816 817 818 819 819 820 821 822 823 825 825 826 827 827 827 828 829 830 831 832 832 832 832 833 833 834 834 835 836 835 835 836 836 836 836 836 836 836 836 836 836 837 837 837
753 752 754 758 763 764 764 767 769 771 773 776 777 778 780 781 781 783 785 787 789 789 790 792 793 794 796 798 800 803 804 805 807 810 812 813 813 814 813 814 815 817 818 819 820 821 822 823 824 824 825 826 827 827 828 828 828 828 829 829 830 831 832 833 833 834 834 835 835 836 836 836 836 836 836 835 835 835 835 835 835 835 834 835 835 836 835
753 751 751 754 758 762 765 768 770 772 775 778 778 779 781 783 786 789 790 791 792 793 794 796 798 799 799 801 803 804 805 805 806 808 810 811 813 814 815 816 817 819 820 821 823 824 825 826 827 827 828 829 829 829 829 829 830 830 830 831 832 833 833 834 835 835 835 836 837 837 837 837 837 836 836 836 836 835 834 834 835 835 834 834 835 834 834
752 751 752 755 759 763 766 769 772 774 776 778 779 779 781 784 789 794 796 796 796 798 799 801 802 803 803 804 806 807 806 806 808 810 811 812 813 815 816 817 819 821 823 824 826 827 828 829 830 831 832 832 832 831 831 831 831 832 832 833 834 834 835 835 835 835 836 836 837 837 837 837 837 837 837 836 836 836 835 835 835 835 834 834 833 833 832
754 753 754 758 760 763 766 769 772 774 776 777 780 781 782 785 791 796 799 801 800 801 803 804 805 806 806 807 809 810 809 810 812 814 814 815 816 817 817 818 820 822 825 827 829 830 831 832 833 833 834 833 833 833 832 832 832 833 833 834 835 835 836 836 836 836 836 836 837 837 838 837 837 838 837 837 837 836 836 836 835 835 834 834 833 833 833
758 757 758 760 761 763 766 768 771 774 777 778 781 784 784 786 789 793 797 801 804 805 806 807 807 808 809 810 811 811 811 812 814 815 816 817 819 819 820 821 823 825 828 829 830 831 832 833 834 835 835 835 834 833 833 833 833 833 834 834 835 836 837 837 837 837 837 837 838 838 839 839 838 838 838 838 838 838 838 837 837 837 836 835 835 834 834
760 760 760 760 761 763 767 768 770 774 776 778 781 784 785 786 789 791 795 800 805 807 808 809 811 811 811 811 812 812 813 814 815 817 818 819 820 821 822 823 825 827 829 830 831 832 833 834 835 835 835 835 835 834 834 834 834 834 835 835 835 836 837 838 838 838 837 838 839 839 840 840 839 839 839 840 839 839 839 838 838 838 837 836 836 835 835
755 756 755 754 755 759 764 767 769 772 774 777 780 783 785 787 790 792 795 799 803 806 808 810 812 812 813 814 814 814 814 816 817 819 820 821 822 823 824 826 827 829 830 831 832 833 834 835 836 836 836 836 836 836 835 835 835 835 836 836 836 837 837 838 838 838 838 839 839 840 840 840 840 840 841 840 840 840 839 839 838 838 837 837 836 836 835
751 754 755 753 754 759 763 766 769 770 772 775 779 782 785 788 790 793 796 799 802 805 807 809 811 812 814 816 816 815 816 818 819 821 823 824 825 826 827 828 829 831 832 834 835 836 837 838 838 838 838 837 837 837 836 836 836 836 837 837 837 837 838 838 839 839 839 840 840 840 841 841 841 841 841 841 840 840 839 839 839 838 838 837 836 836 835
750 754 757 756 758 763 765 766 767 768 770 774 778 781 784 787 790 793 796 799 802 805 807 809 811 812 814 816 816 816 818 820 822 824 825 826 827 828 829 830 832 833 835 837 838 839 840 840 839 839 839 839 838 838 837 837 837 837 838 838 838 838 839 839 840 841 841 842 842 842 842 842 842 841 841 841 840 839 839 839 839 839 838 837 836 836 836
752 754 755 755 759 764 765 765 767 768 770 774 777 781 784 787 789 793 796 799 802 805 807 809 811 813 814 815 816 818 820 822 824 825 827 828 829 830 830 832 833 835 836 838 840 841 841 841 841 840 840 839 839 839 838 837 838 839 839 839 839 839 840 840 841 842 842 842 843 843 843 842 842 841 841 841 840 840 840 840 839 839 839 838 837 837 836
751 752 754 756 759 762 764 766 768 769 771 775 778 781 784 787 789 793 796 799 802 805 807 809 811 812 814 816 818 820 822 824 825 827 828 829 830 831 832 833 834 835 837 839 841 841 841 841 841 841 840 840 839 839 838 838 839 839 840 840 841 841 841 841 842 843 843 843 844 844 843 843 842 842 842 842 841 841 841 841 841 841 840 839 838 838 837
748 750 755 760 761 762 765 768 770 770 772 775 778 782 785 787 790 793 796 799 803 805 807 809 811 812 814 817 819 821 823 825 826 828 829 830 831 832 833 834 836 837 838 840 841 841 841 841 841 840 840 840 840 840 840 839 840 840 841 841 841 841 842 842 842 842 843 843 844 843 843 843 843 843 842 842 842 842 841 842 842 842 841 840 840 840 840
747 750 757 762 763 763 767 770 771 772 774 776 778 782 785 788 790 793 796 799 802 805 806 808 811 813 815 817 819 821 824 825 827 828 830 831 832 833 834 836 837 838 839 840 840 840 840 840 840 840 841 841 841 841 841 841 840 841 841 841 841 842 842 842 842 842 842 843 843 843 843 843 843 843 843 843 842 842 842 843 843 843 842 842 842 842 842
748 751 757 761 761 764 769 771 771 772 775 777 779 783 785 788 790 793 796 799 802 804 806 808 810 813 815 817 820 822 824 826 827 829 830 831 832 832 833 836 837 838 838 839 839 839 840 840 841 841 841 841 841 841 842 842 842 842 842 842 842 842 843 843 843 843 843 843 843 843 843 844 844 843 843 844 843 843 844 844 844 844 844 844 844 844 844
748 751 754 757 758 762 768 771 771 772 775 778 780 783 786 788 791 793 796 799 802 804 806 809 811 813 816 818 820 822 824 826 828 829 830 831 831 831 832 835 837 838 838 839 839 840 840 841 842 842 842 842 843 842 842 842 842 842 843 843 843 843 844 844 844 844 844 844 844 844 845 845 845 844 845 845 845 845 845 845 845 844 845 845 845 845 845
747 749 752 755 757 760 765 769 772 773 775 778 781 784 787 789 791 794 796 799 802 804 807 809 812 814 817 819 821 822 824 826 828 829 830 831 832 832 832 834 836 837 838 839 840 841 841 842 842 842 842 843 843 843 843 843 843 843 844 844 844 844 844 844 844 844 844 845 845 845 846 846 846 845 846 847 847 847 847 847 846 845 845 846 846 846 846
746 747 750 755 757 759 763 767 770 773 776 779 782 785 787 789 792 794 796 799 802 804 807 810 812 815 817 819 821 822 824 826 827 829 829 831 832 833 834 835 836 837 838 839 840 841 842 842 843 843 843 843 844 843 843 843 844 844 844 844 844 844 845 845 845 845 845 845 846 846 847 846 846 846 847 848 848 848 848 848 847 847 846 846 846 846 847
744 746 750 754 755 758 762 766 769 773 776 780 782 785 787 790 792 794 796 799 802 804 807 810 812 815 817 819 820 822 824 825 827 828 829 830 832 833 835 836 837 838 839 840 840 841 842 842 842 843 844 844 844 843 843 844 845 845 845 845 845 845 845 846 846 846 846 846 847 847 847 847 847 847 847 848 849 848 849 849 849 848 848 847 847 847 847
742 746 752 755 756 758 762 766 770 774 777 779 782 785 788 790 792 795 797 799 802 805 807 810 812 814 817 819 821 823 824 826 827 829 829 830 831 833 835 836 838 838 839 840 841 841 842 842 843 844 844 844 844 844 845 845 845 845 845 846 846 846 847 847 847 847 847 847 848 848 849 848 848 848 848 849 848 848 849 849 849 848 849 849 848 848 848
740 745 752 758 761 762 763 766 770 774 776 778 781 784 787 789 792 795 797 800 803 805 808 810 812 815 817 819 821 822 824 825 827 829 830 830 831 833 835 836 837 838 839 840 840 841 842 842 843 844 845 844 844 845 845 846 846 846 846 846 846 847 847 848 848 848 848 848 849 849 849 849 849 849 849 848 848 848 848 849 849 849 849 849 848 848 848
739 744 750 757 762 764 764 766 770 773 776 778 780 783 786 789 792 794 797 801 803 805 808 811 813 815 817 819 821 822 823 824 825 827 829 830 831 833 834 836 836 837 839 839 840 841 842 843 844 845 845 845 845 845 846 846 846 846 846 847 847 847 848 848 848 848 849 849 849 849 849 849 850 850 849 848 848 848 848 848 848 848 848 849 848 848 847
741 744 749 754 759 761 762 764 767 770 774 777 779 782 785 788 791 795 798 800 802 805 808 810 813 815 817 819 820 822 823 823 824 826 827 829 831 832 834 835 836 837 839 840 841 842 843 844 845 845 845 845 845 845 846 846 846 847 847 847 848 848 849 849 849 849 849 849 849 850 849 849 849 850 849 848 848 848 849 848 848 848 848 848 848 847 847
742 746 749 752 755 758 760 762 765 768 772 776 779 782 785 788 790 794 797 799 802 805 807 810 812 815 817 818 820 821 822 823 824 825 827 829 831 832 833 835 836 837 839 841 841 842 843 844 845 845 845 844 845 846 846 846 847 847 848 848 848 848 849 849 850 850 850 850 849 849 849 849 849 849 849 849 848 849 849 849 848 848 848 848 847 847 847
744 747 750 753 755 758 760 762 765 768 771 774 777 781 784 786 789 792 795 798 800 803 806 808 811 813 815 817 818 820 821 823 824 825 827 829 830 832 833 835 836 838 839 840 841 842 843 844 845 845 845 845 845 846 846 847 847 847 848 848 848 848 848 849 849 849 849 850 849 849 849 848 848 849 849 848 849 849 849 848 848 848 847 847 847 848 848
745 749 752 755 757 759 761 763 766 769 772 775 777 780 782 785 788 791 794 797 799 801 804 807 809 812 813 815 817 819 820 822 823 825 827 828 830 832 833 835 837 838 839 840 841 842 843 843 844 845 845 845 845 846 846 847 847 847 848 848 848 848 848 848 848 848 849 849 849 849 848 848 848 848 849 848 848 849 849 848 848 848 847 847 847 847 847